[[{"header":{"parameterUnit":"m.s-1","parameterCategory":2,"la1":30.2991,"la2":30.254,"lo1":-89.0895,"lo2":-89.0444,"dy":0.0017,"dx":0.0017,"nx":28,"ny":28,"refTime":"2025-02-23T03:00:00:Z","depth":"0","parameterNumber":2,"parameterNumberName":"U-component_of_CURRENTS"},"data":[0,0,0,0,0,0,0,0,0,0,0,0,0,0,0,0,0,0,0,0,0,0,0,0,0,0,0,0,0,0,0,0,0,0,0,0,0,0,0,0,0,0,0,0,0,0,0,0,0,0,0,0,0,0,0,0,0,0,0.2327,0.2327,0,0.2366,0.2366,0.2367,0.2362,0.2362,0.2362,0.2361,0.237,0.237,0.2371,0,0,0,0,0,0,0,0,0,0,0,0,0,0.2257,0.2258,0.2327,0.2328,0.2328,0.2366,0.2366,0.2367,0.2362,0.2362,0.2362,0.2361,0.237,0.237,0.2371,0,0,0,0,0,0,0,0,0,0,0,0,0,0.2289,0.2259,0.2327,0.2332,0.2334,0.2366,0.2366,0.2367,0.2363,0.2362,0.2361,0.2361,0.2369,0.237,0.2371,0.2389,0,0,0.2374,0.2374,0,0,0,0,0,0,0,0,0.2287,0.2291,0.2331,0.2332,0.2333,0.2361,0.2345,0.2373,0.2363,0.2349,0.2361,0.2361,0.2366,0.2367,0.2373,0.2389,0.2389,0.2374,0.2374,0.2375,0.2375,0,0,0,0,0,0,0,0.2285,0.2289,0.234,0.2332,0.2333,0.2337,0.234,0.2351,0.2358,0.235,0.2351,0.2359,0.2366,0.2372,0.2373,0.2389,0.2374,0.2375,0.2375,0.2376,0.2452,0.2454,0,0,0,0,0,0,0.2285,0.2287,0.2339,0.2341,0.2311,0.2338,0.2342,0.2351,0.2358,0.236,0.2359,0.2359,0.2371,0.2372,0.2373,0.2423,0.2375,0.2376,0.2376,0.2451,0.2453,0.2454,0,0,0,0,0,0,0.2284,0.229,0.2337,0.2317,0.2324,0.234,0.235,0.2352,0.236,0.2366,0.2367,0.2366,0.237,0.2372,0.2392,0.2422,0.2376,0.2377,0.2449,0.2452,0.2454,0.2505,0,0,0,0,0,0,0.2281,0.2289,0.2294,0.2317,0.2325,0.2363,0.2351,0.2353,0.2367,0.2367,0.2373,0.2373,0.237,0.2391,0.2393,0.2423,0.2378,0.2447,0.245,0.2453,0.2501,0.2509,0.2515,0,0,0,0,0,0.2279,0.229,0.2294,0.2301,0.2332,0.2364,0.2369,0.2376,0.2368,0.238,0.2384,0.2372,0.2411,0.2393,0.2395,0.2426,0.2446,0.2449,0.2453,0.2498,0.2507,0.2515,0,0,0,0,0,0,0.2259,0.2291,0.2296,0.2315,0.2342,0.2365,0.2376,0.2381,0.2394,0.2391,0.2388,0.239,0.2421,0.2417,0.2397,0.2457,0.2428,0.2432,0.2462,0.2471,0.2477,0.2487,0.2378,0,0,0,0,0,0.2259,0.2276,0.2308,0.2323,0.2338,0.2357,0.237,0.2379,0.2395,0.24,0.2404,0.2415,0.2438,0.2447,0.2461,0.249,0.2501,0.2513,0.252,0.2526,0.2537,0.2574,0.2585,0.2466,0.2466,0.2465,0,0,0.2253,0.2276,0.2283,0.2321,0.2339,0.2372,0.2363,0.2389,0.2418,0.2399,0.243,0.2437,0.2451,0.2487,0.2501,0.2487,0.2568,0.253,0.2535,0.2543,0.2579,0.259,0.2601,0.2468,0.2467,0.2467,0,0,0.2259,0.2275,0.2295,0.2323,0.2361,0.2381,0.2391,0.242,0.2433,0.2466,0.2466,0.2492,0.2514,0.2539,0.2553,0.2607,0.2602,0.2609,0.2653,0.2689,0.2699,0.2708,0.2747,0.2759,0.2613,0.2613,0.2613,0,0.2249,0.2283,0.2305,0.234,0.2367,0.2388,0.2421,0.2447,0.2477,0.2499,0.2481,0.2538,0.2545,0.2606,0.2627,0.2624,0.264,0.2618,0.2698,0.2707,0.2715,0.2752,0.2765,0.2616,0.2616,0.2615,0.2615,0,0.2277,0.2307,0.2324,0.2376,0.2409,0.244,0.2484,0.2513,0.2527,0.2553,0.2605,0.2617,0.2652,0.2662,0.2662,0.2731,0.2724,0.27,0.2675,0.273,0.2766,0.2778,0.262,0.2619,0.2618,0.2617,0,0,0.2245,0.2326,0.2332,0.2364,0.243,0.2459,0.2518,0.2578,0.2617,0.2645,0.2697,0.2741,0.2743,0.276,0.2764,0.2797,0.2872,0.2777,0.2777,0.2813,0.2959,0.3017,0.3035,0.2858,0.286,0.2862,0.2964,0,0.2258,0.2323,0.2364,0.2427,0.2465,0.2514,0.2568,0.2626,0.2667,0.2721,0.2756,0.2801,0.2783,0.28,0.2836,0.2863,0.2905,0.2847,0.2903,0.2905,0.2947,0.3052,0.2971,0.3061,0.2976,0.2978,0.2979,0,0.2268,0.2315,0.2375,0.246,0.2481,0.2521,0.2609,0.2658,0.2747,0.2783,0.2838,0.2861,0.2933,0.2894,0.2983,0.2945,0.2964,0.2977,0.298,0.3026,0.2986,0.2991,0.3086,0.306,0.2998,0.2996,0.2995,0,0.2234,0.232,0.2367,0.2396,0.2495,0.253,0.2579,0.2669,0.2721,0.2818,0.2867,0.2942,0.2985,0.3023,0.3073,0.3026,0.3166,0.3099,0.3172,0.3176,0.3116,0.3112,0.3191,0.3166,0.3166,0.3165,0.3165,0,0.2229,0.2266,0.2352,0.2379,0.2432,0.2509,0.2569,0.2637,0.2738,0.281,0.2886,0.2963,0.3018,0.3103,0.3119,0.3217,0.3211,0.3218,0.3223,0.3134,0.3131,0.3111,0.3071,0.3169,0.3168,0.3168,0.3167,0,0.2179,0.2239,0.2291,0.2388,0.2415,0.2446,0.2548,0.2599,0.2706,0.2805,0.2843,0.2997,0.3129,0.3202,0.3289,0.3293,0.3302,0.339,0.3298,0.3292,0.3318,0.3282,0.3233,0.3134,0.3479,0.3481,0.3483,0,0.2157,0.2181,0.227,0.2296,0.2334,0.2393,0.2438,0.2558,0.2627,0.2827,0.2881,0.3059,0.3187,0.3377,0.3437,0.3525,0.3403,0.3483,0.3384,0.3358,0.332,0.3157,0.3062,0.3317,0.3318,0.3318,0.3318,0,0.2111,0.214,0.2185,0.2236,0.2282,0.233,0.2412,0.2466,0.2622,0.2725,0.2901,0.3026,0.3271,0.3372,0.3528,0.3549,0.3357,0.3495,0.3476,0.3236,0.3051,0.2945,0.3215,0.3321,0.3321,0.3321,0.3321,0.332,0.2061,0.2072,0.2131,0.2169,0.2221,0.2266,0.2275,0.239,0.2489,0.2638,0.2828,0.2993,0.3251,0.3481,0.349,0.3523,0.3418,0.3435,0.3406,0.3253,0.3126,0.3436,0.3546,0.3547,0.3548,0.3548,0.3549,0,0.1991,0.2022,0.2063,0.2105,0.2121,0.2178,0.2255,0.2261,0.2336,0.2543,0.2685,0.2992,0.3171,0.3356,0.3534,0.3455,0.3224,0.3372,0.3098,0.3013,0.3317,0.3283,0.3331,0.3331,0.3331,0.3331,0.3331,0.3331,0.1957,0.1966,0.1991,0.1993,0.2021,0.2,0.2019,0.2059,0.2179,0.2361,0.2549,0.2754,0.3207,0.3562,0.3594,0.3462,0.3156,0.3041,0.2995,0.3219,0.322,0.3221,0.3183,0.3209,0.3209,0.2556,0.2552,0.2549]},{"header":{"parameterUnit":"m.s-1","parameterCategory":2,"la1":30.2991,"la2":30.254,"lo1":-89.0895,"lo2":-89.0444,"dy":0.0017,"dx":0.0017,"nx":28,"ny":28,"refTime":"2025-02-23T03:00:00:Z","depth":"0","parameterNumber":3,"parameterNumberName":"V-component_of_CURRENTS"},"data":[0,0,0,0,0,0,0,0,0,0,0,0,0,0,0,0,0,0,0,0,0,0,0,0,0,0,0,0,0,0,0,0,0,0,0,0,0,0,0,0,0,0,0,0,0,0,0,0,0,0,0,0,0,0,0,0,0,0,-0.0377,-0.0377,0,-0.0443,-0.0444,-0.0445,-0.0488,-0.0488,-0.0489,-0.0489,-0.0583,-0.0585,-0.0587,0,0,0,0,0,0,0,0,0,0,0,0,0,-0.0327,-0.0328,-0.0376,-0.0377,-0.0378,-0.0443,-0.0444,-0.0445,-0.0488,-0.0488,-0.0489,-0.0489,-0.0582,-0.0585,-0.0587,0,0,0,0,0,0,0,0,0,0,0,0,0,-0.0367,-0.0328,-0.0376,-0.0407,-0.041,-0.0443,-0.0444,-0.0445,-0.0488,-0.0488,-0.0489,-0.0489,-0.0581,-0.0584,-0.0588,-0.0602,0,0,-0.0598,-0.06,0,0,0,0,0,0,0,0,-0.0365,-0.0369,-0.0402,-0.0405,-0.0409,-0.0457,-0.0461,-0.0499,-0.0488,-0.0459,-0.0489,-0.0489,-0.0542,-0.0549,-0.0561,-0.0607,-0.0611,-0.0598,-0.0601,-0.0602,-0.0603,0,0,0,0,0,0,0,-0.0362,-0.0367,-0.0404,-0.0402,-0.0407,-0.0431,-0.0437,-0.0469,-0.0499,-0.0462,-0.0465,-0.0471,-0.0545,-0.0558,-0.0564,-0.0612,-0.0598,-0.0601,-0.0604,-0.0605,-0.069,-0.069,0,0,0,0,0,0,-0.035,-0.0364,-0.0401,-0.0405,-0.0386,-0.0432,-0.0438,-0.0442,-0.0498,-0.0507,-0.0471,-0.0473,-0.0552,-0.056,-0.0567,-0.0595,-0.0602,-0.0605,-0.0607,-0.069,-0.069,-0.069,0,0,0,0,0,0,-0.0349,-0.0353,-0.0399,-0.0386,-0.0393,-0.0432,-0.0436,-0.0443,-0.0455,-0.0505,-0.0514,-0.0475,-0.0552,-0.0563,-0.0591,-0.0599,-0.0607,-0.061,-0.069,-0.069,-0.069,-0.0647,0,0,0,0,0,0,-0.0347,-0.0352,-0.0349,-0.0385,-0.0394,-0.041,-0.0436,-0.0444,-0.0458,-0.0461,-0.0511,-0.0521,-0.0554,-0.0585,-0.0594,-0.0604,-0.0613,-0.069,-0.069,-0.069,-0.0648,-0.0645,-0.0643,0,0,0,0,0,-0.0345,-0.0337,-0.0349,-0.0353,-0.0389,-0.041,-0.0416,-0.0446,-0.0457,-0.0458,-0.0492,-0.0519,-0.0594,-0.0588,-0.0598,-0.0609,-0.0689,-0.069,-0.069,-0.0649,-0.0646,-0.0643,0,0,0,0,0,0,-0.0313,-0.0341,-0.0355,-0.0356,-0.0378,-0.0417,-0.0419,-0.044,-0.0467,-0.047,-0.0518,-0.0529,-0.0559,-0.0587,-0.0579,-0.0635,-0.0648,-0.0651,-0.0613,-0.0611,-0.0609,-0.0607,-0.0615,0,0,0,0,0,-0.0305,-0.0307,-0.0339,-0.0339,-0.0347,-0.0382,-0.0393,-0.0413,-0.0442,-0.0455,-0.0491,-0.0531,-0.057,-0.059,-0.0625,-0.0652,-0.0688,-0.0668,-0.0665,-0.0663,-0.0669,-0.0734,-0.0739,-0.0692,-0.0692,-0.0692,0,0,-0.0293,-0.0308,-0.031,-0.0332,-0.0352,-0.036,-0.0389,-0.0401,-0.0413,-0.0461,-0.0484,-0.0522,-0.0574,-0.0606,-0.0623,-0.063,-0.0691,-0.0664,-0.0661,-0.0669,-0.0735,-0.074,-0.0744,-0.0692,-0.0692,-0.0692,0,0,-0.0269,-0.0282,-0.0276,-0.0292,-0.0316,-0.0338,-0.0338,-0.0372,-0.0392,-0.0417,-0.0459,-0.0501,-0.0549,-0.0596,-0.0625,-0.0632,-0.0675,-0.064,-0.0631,-0.0694,-0.0699,-0.0703,-0.0735,-0.0743,-0.0642,-0.0641,-0.0641,0,-0.0252,-0.0252,-0.0277,-0.0278,-0.0286,-0.0324,-0.032,-0.0348,-0.0389,-0.0408,-0.0416,-0.0509,-0.055,-0.0609,-0.0613,-0.0629,-0.0659,-0.0635,-0.0691,-0.0697,-0.0702,-0.0734,-0.0743,-0.0639,-0.064,-0.064,-0.064,0,-0.0228,-0.0229,-0.0225,-0.0239,-0.0251,-0.0252,-0.029,-0.0307,-0.0333,-0.0369,-0.0423,-0.0483,-0.0541,-0.0562,-0.0591,-0.0651,-0.0657,-0.0678,-0.0696,-0.0704,-0.0737,-0.0747,-0.0636,-0.0637,-0.0638,-0.0638,0,0,-0.0188,-0.0204,-0.0202,-0.0197,-0.0229,-0.023,-0.0253,-0.0286,-0.0297,-0.0356,-0.0383,-0.0469,-0.0508,-0.0544,-0.0592,-0.065,-0.0708,-0.0676,-0.068,-0.0703,-0.0826,-0.0782,-0.0789,-0.0739,-0.0741,-0.0743,-0.0826,0,-0.016,-0.0145,-0.0166,-0.0151,-0.0145,-0.0184,-0.0197,-0.0235,-0.0274,-0.0309,-0.0398,-0.0437,-0.05,-0.0518,-0.0595,-0.0673,-0.0737,-0.0682,-0.082,-0.0823,-0.078,-0.08,-0.0755,-0.0822,-0.0836,-0.0838,-0.0839,0,-0.013,-0.0123,-0.0102,-0.01,-0.01,-0.0099,-0.0118,-0.0137,-0.021,-0.0239,-0.0317,-0.0378,-0.0477,-0.0517,-0.0689,-0.0649,-0.074,-0.0806,-0.0811,-0.0796,-0.0799,-0.0822,-0.0841,-0.1043,-0.0856,-0.0854,-0.0853,0,-0.0082,-0.0075,-0.0052,-0.0053,-0.0063,-0.0058,-0.0067,-0.0118,-0.0119,-0.0195,-0.0195,-0.034,-0.0374,-0.0535,-0.0672,-0.0686,-0.0841,-0.088,-0.0931,-0.0928,-0.0931,-0.0924,-0.116,-0.1013,-0.1012,-0.1012,-0.1012,0,-0.0044,-0.0023,-0.0023,-0.0009,0.0028,-0.0003,0.002,-0.0009,-0.0042,-0.0025,-0.0153,-0.015,-0.0379,-0.0487,-0.0651,-0.0804,-0.0833,-0.0935,-0.0955,-0.091,-0.09,-0.1108,-0.1232,-0.1015,-0.1015,-0.1014,-0.1014,0,0.0003,-0.0001,0.0033,0.0041,0.0053,0.0078,0.01,0.0115,0.0078,0.01,0.0089,-0.001,-0.0132,-0.0351,-0.0577,-0.0736,-0.102,-0.0959,-0.0869,-0.0877,-0.1116,-0.1237,-0.1509,-0.1601,-0.1047,-0.1047,-0.1047,0,0.0028,0.005,0.0084,0.0119,0.0129,0.0163,0.0193,0.0174,0.0209,0.0208,0.0242,0.0144,0.0116,-0.0194,-0.048,-0.0757,-0.0984,-0.0923,-0.0959,-0.113,-0.1282,-0.1389,-0.1455,-0.0945,-0.0943,-0.0942,-0.0942,0,0.0081,0.0092,0.0124,0.0192,0.0239,0.0294,0.0346,0.0399,0.0397,0.0441,0.0505,0.0489,0.0236,0.0006,-0.037,-0.0587,-0.1068,-0.0909,-0.1136,-0.1263,-0.1351,-0.1445,-0.0872,-0.0933,-0.0934,-0.0934,-0.0935,-0.0935,0.0127,0.0162,0.0207,0.0276,0.0336,0.0426,0.049,0.0573,0.0667,0.0759,0.0731,0.0761,0.04,-0.0076,-0.0391,-0.0945,-0.0993,-0.1133,-0.1276,-0.1375,-0.145,-0.0831,-0.0879,-0.088,-0.088,-0.088,-0.0881,0,0.0189,0.0227,0.0292,0.0376,0.0454,0.0472,0.0597,0.0678,0.0828,0.0933,0.1006,0.0868,0.0411,-0.0101,-0.0809,-0.123,-0.1429,-0.15,-0.1679,-0.1737,-0.1226,-0.1204,-0.1263,-0.1263,-0.1263,-0.1263,-0.1263,-0.1262,0.0226,0.0298,0.0327,0.0464,0.0528,0.0645,0.0725,0.0865,0.0976,0.1126,0.1174,0.1176,0.0812,-0.0525,-0.1456,-0.1687,-0.2042,-0.2099,-0.2296,-0.1976,-0.1954,-0.1933,-0.1943,-0.2156,-0.2158,-0.2735,-0.2741,-0.2745]}],[{"header":{"parameterUnit":"m.s-1","parameterCategory":2,"la1":30.2991,"la2":30.254,"lo1":-89.0895,"lo2":-89.0444,"dy":0.0017,"dx":0.0017,"nx":28,"ny":28,"refTime":"2025-02-23T03:00:00:Z","depth":"2","parameterNumber":2,"parameterNumberName":"U-component_of_CURRENTS"},"data":[0,0,0,0,0,0,0,0,0,0,0,0,0,0,0,0,0,0,0,0,0,0,0,0,0,0,0,0,0,0,0,0,0,0,0,0,0,0,0,0,0,0,0,0,0,0,0,0,0,0,0,0,0,0,0,0,0,0,0.2327,0.2327,0,0.2364,0.2364,0.2365,0.2362,0.2362,0.2362,0.2361,0.2374,0.2374,0.2375,0,0,0,0,0,0,0,0,0,0,0,0,0,0.2261,0.2262,0.2327,0.2327,0.2328,0.2364,0.2364,0.2365,0.2362,0.2362,0.2362,0.2361,0.2373,0.2374,0.2375,0,0,0,0,0,0,0,0,0,0,0,0,0,0.229,0.2262,0.2327,0.2333,0.2334,0.2364,0.2364,0.2365,0.2363,0.2362,0.2362,0.2361,0.2373,0.2374,0.2375,0.2391,0,0,0.2378,0.2378,0,0,0,0,0,0,0,0,0.2289,0.2293,0.2331,0.2333,0.2334,0.236,0.2346,0.2373,0.2363,0.2349,0.2361,0.2361,0.2369,0.237,0.2375,0.2391,0.2392,0.2378,0.2378,0.2379,0.2379,0,0,0,0,0,0,0,0.2287,0.2291,0.2339,0.2332,0.2334,0.2337,0.234,0.2351,0.2359,0.235,0.2351,0.2359,0.2369,0.2374,0.2375,0.2392,0.2378,0.2379,0.2379,0.238,0.2462,0.2463,0,0,0,0,0,0,0.2287,0.2289,0.2338,0.2341,0.2312,0.2338,0.2342,0.235,0.2359,0.2361,0.2359,0.2359,0.2373,0.2374,0.2376,0.2433,0.2379,0.238,0.238,0.246,0.2462,0.2464,0,0,0,0,0,0,0.2286,0.2291,0.2337,0.2317,0.2324,0.234,0.2349,0.2351,0.2361,0.2367,0.2368,0.2368,0.2372,0.2374,0.2395,0.2431,0.238,0.2381,0.2458,0.2461,0.2463,0.2522,0,0,0,0,0,0,0.2284,0.229,0.2297,0.2318,0.2325,0.2362,0.235,0.2353,0.2368,0.2367,0.2374,0.2375,0.2372,0.2394,0.2396,0.2432,0.2382,0.2456,0.2459,0.2462,0.2518,0.2526,0.2533,0,0,0,0,0,0.2281,0.2292,0.2297,0.2303,0.2333,0.2363,0.2367,0.2375,0.2369,0.238,0.2385,0.2375,0.2415,0.2396,0.2398,0.2435,0.2455,0.2458,0.2462,0.2515,0.2525,0.2533,0,0,0,0,0,0,0.2264,0.2294,0.2299,0.2318,0.2342,0.2363,0.2375,0.238,0.2393,0.2392,0.239,0.2391,0.2426,0.2421,0.24,0.2469,0.2436,0.244,0.2475,0.2485,0.2492,0.2503,0.2383,0,0,0,0,0,0.2265,0.2282,0.2311,0.2326,0.234,0.2358,0.2371,0.2379,0.2395,0.24,0.2405,0.2418,0.2444,0.2455,0.2469,0.2502,0.2512,0.253,0.2537,0.2543,0.2555,0.2596,0.2608,0.2476,0.2476,0.2476,0,0,0.226,0.2282,0.2289,0.2324,0.2342,0.2374,0.2364,0.239,0.242,0.24,0.2434,0.2441,0.2458,0.2498,0.2514,0.2498,0.2589,0.2548,0.2553,0.2562,0.2601,0.2614,0.2625,0.2478,0.2478,0.2477,0,0,0.2268,0.2283,0.2303,0.233,0.2366,0.2385,0.2395,0.2422,0.2437,0.2471,0.2472,0.2502,0.2526,0.2555,0.2572,0.2631,0.2626,0.2634,0.2684,0.2723,0.2735,0.2745,0.2783,0.2795,0.264,0.264,0.264,0,0.226,0.2293,0.2313,0.2346,0.2374,0.2393,0.2427,0.2453,0.2483,0.2507,0.2488,0.2553,0.2561,0.2631,0.2654,0.265,0.2666,0.2647,0.2733,0.2743,0.2753,0.2789,0.2802,0.2643,0.2643,0.2642,0.2642,0,0.2288,0.2318,0.2335,0.2386,0.2419,0.245,0.2494,0.2525,0.2541,0.2569,0.2628,0.2641,0.2681,0.2694,0.2693,0.2771,0.276,0.2736,0.2709,0.2769,0.2804,0.2817,0.2648,0.2647,0.2646,0.2645,0,0,0.2259,0.2338,0.2344,0.2377,0.2443,0.2471,0.2535,0.2599,0.2642,0.2672,0.2731,0.2781,0.2784,0.2804,0.2809,0.2845,0.2926,0.2822,0.2822,0.2858,0.3017,0.3018,0.3032,0.2913,0.2915,0.2917,0.3018,0,0.2274,0.2339,0.238,0.2445,0.2482,0.2533,0.259,0.2652,0.2697,0.2756,0.2796,0.2845,0.2829,0.2847,0.2889,0.2915,0.2961,0.2901,0.2955,0.2957,0.2949,0.3047,0.2804,0.2875,0.3031,0.3033,0.3034,0,0.2286,0.2333,0.2394,0.2481,0.2503,0.2544,0.2639,0.2691,0.2787,0.2825,0.2888,0.2912,0.2991,0.295,0.3046,0.3006,0.3025,0.3037,0.3041,0.3031,0.2982,0.2838,0.2892,0.3055,0.3054,0.3052,0.3051,0,0.2254,0.2341,0.239,0.242,0.252,0.2558,0.261,0.2706,0.2761,0.2865,0.2915,0.2998,0.3042,0.3085,0.3135,0.3089,0.3233,0.3166,0.3189,0.3189,0.2989,0.2968,0.3238,0.3238,0.3238,0.3238,0.3237,0,0.2252,0.229,0.2376,0.2404,0.246,0.2538,0.2603,0.2675,0.2781,0.2857,0.2937,0.3016,0.3076,0.3164,0.3182,0.3255,0.3279,0.3231,0.3229,0.3005,0.2985,0.3135,0.3122,0.3241,0.3241,0.324,0.3239,0,0.2204,0.2264,0.2318,0.2416,0.2443,0.2477,0.2581,0.2636,0.2747,0.285,0.2888,0.3046,0.3179,0.3256,0.3347,0.332,0.3379,0.3394,0.3139,0.3107,0.3286,0.3275,0.3412,0.3413,0.3414,0.3415,0.3415,0,0.2184,0.2209,0.2297,0.2323,0.2361,0.2422,0.2469,0.2594,0.2663,0.287,0.2924,0.3103,0.32,0.3366,0.3399,0.3461,0.348,0.3238,0.3107,0.3327,0.3311,0.3298,0.3286,0.2859,0.2855,0.2852,0.2849,0,0.2141,0.2169,0.2214,0.2264,0.2309,0.2358,0.2441,0.2493,0.2654,0.2745,0.29,0.2993,0.3202,0.3182,0.33,0.3288,0.3206,0.3177,0.3482,0.2868,0.2819,0.2799,0.2802,0.2821,0.2824,0.2826,0.2827,0.2829,0.2094,0.2105,0.2162,0.22,0.225,0.2291,0.2302,0.2403,0.2486,0.2606,0.2779,0.2834,0.2939,0.3005,0.2976,0.2964,0.316,0.2978,0.2982,0.299,0.2924,0.2881,0.2882,0.2885,0.2887,0.289,0.2892,0,0.2024,0.2056,0.2097,0.2136,0.2146,0.2208,0.228,0.2265,0.2307,0.2445,0.2534,0.2424,0.2463,0.2578,0.253,0.2562,0.2463,0.2448,0.2282,0.2316,0.2346,0.2238,0.2018,0.2014,0.2011,0.2008,0,0,0.199,0.1997,0.2021,0.2016,0.2046,0.2019,0.2034,0.2037,0.2095,0.2093,0.2112,0.2321,0.2475,0.2187,0.2206,0.2095,0.216,0.2014,0.2728,0.2565,0.2588,0.2687,0.2568,0,0,0,0,0]},{"header":{"parameterUnit":"m.s-1","parameterCategory":2,"la1":30.2991,"la2":30.254,"lo1":-89.0895,"lo2":-89.0444,"dy":0.0017,"dx":0.0017,"nx":28,"ny":28,"refTime":"2025-02-23T03:00:00:Z","depth":"2","parameterNumber":3,"parameterNumberName":"V-component_of_CURRENTS"},"data":[0,0,0,0,0,0,0,0,0,0,0,0,0,0,0,0,0,0,0,0,0,0,0,0,0,0,0,0,0,0,0,0,0,0,0,0,0,0,0,0,0,0,0,0,0,0,0,0,0,0,0,0,0,0,0,0,0,0,-0.0281,-0.0282,0,-0.0344,-0.0345,-0.0346,-0.0389,-0.0389,-0.0389,-0.039,-0.0474,-0.0476,-0.0478,0,0,0,0,0,0,0,0,0,0,0,0,0,-0.0234,-0.0234,-0.0281,-0.0282,-0.0282,-0.0344,-0.0345,-0.0346,-0.0389,-0.0389,-0.0389,-0.039,-0.0473,-0.0476,-0.0478,0,0,0,0,0,0,0,0,0,0,0,0,0,-0.0272,-0.0234,-0.0281,-0.0311,-0.0314,-0.0344,-0.0345,-0.0346,-0.0389,-0.0389,-0.039,-0.039,-0.0472,-0.0475,-0.0478,-0.0489,0,0,-0.0487,-0.0489,0,0,0,0,0,0,0,0,-0.0269,-0.0273,-0.0306,-0.0309,-0.0313,-0.0359,-0.0359,-0.0395,-0.0389,-0.0361,-0.039,-0.039,-0.0437,-0.0443,-0.0454,-0.0492,-0.0496,-0.0488,-0.0489,-0.0491,-0.0492,0,0,0,0,0,0,0,-0.0267,-0.0271,-0.0307,-0.0307,-0.0311,-0.0334,-0.0339,-0.0366,-0.0397,-0.0363,-0.0367,-0.0373,-0.0439,-0.0451,-0.0456,-0.0497,-0.0488,-0.049,-0.0492,-0.0493,-0.0566,-0.0567,0,0,0,0,0,0,-0.0256,-0.0268,-0.0305,-0.0308,-0.0291,-0.0334,-0.034,-0.0344,-0.0396,-0.0404,-0.0372,-0.0374,-0.0446,-0.0453,-0.0459,-0.0486,-0.0491,-0.0494,-0.0495,-0.0566,-0.0567,-0.0567,0,0,0,0,0,0,-0.0254,-0.0258,-0.0302,-0.029,-0.0297,-0.0334,-0.0338,-0.0345,-0.0357,-0.0402,-0.0411,-0.0378,-0.0446,-0.0455,-0.0479,-0.049,-0.0495,-0.0498,-0.0566,-0.0566,-0.0567,-0.0533,0,0,0,0,0,0,-0.0253,-0.0257,-0.0256,-0.0289,-0.0297,-0.0312,-0.0338,-0.0346,-0.036,-0.0364,-0.041,-0.0418,-0.0447,-0.0475,-0.0482,-0.0494,-0.05,-0.0566,-0.0566,-0.0567,-0.0534,-0.0532,-0.053,0,0,0,0,0,-0.0251,-0.0243,-0.0255,-0.026,-0.0294,-0.0312,-0.0318,-0.0347,-0.036,-0.036,-0.0392,-0.0417,-0.0483,-0.0477,-0.0486,-0.0499,-0.0566,-0.0566,-0.0567,-0.0535,-0.0532,-0.053,0,0,0,0,0,0,-0.0221,-0.0248,-0.0262,-0.0263,-0.0283,-0.0319,-0.0322,-0.0342,-0.0367,-0.0371,-0.0414,-0.0424,-0.0452,-0.0476,-0.0468,-0.0521,-0.053,-0.0532,-0.0503,-0.0501,-0.0499,-0.0499,-0.0502,0,0,0,0,0,-0.0213,-0.0215,-0.0245,-0.0246,-0.0253,-0.0287,-0.0298,-0.0317,-0.0344,-0.0356,-0.0388,-0.0425,-0.046,-0.0479,-0.0509,-0.0533,-0.0568,-0.0549,-0.0547,-0.0546,-0.0552,-0.0612,-0.0617,-0.0568,-0.0568,-0.0568,0,0,-0.0203,-0.0217,-0.0219,-0.024,-0.0258,-0.0264,-0.0294,-0.0305,-0.0316,-0.0361,-0.0381,-0.0417,-0.0464,-0.0493,-0.0509,-0.0515,-0.0575,-0.0546,-0.0544,-0.0552,-0.0613,-0.0618,-0.0623,-0.0568,-0.0568,-0.0568,0,0,-0.0178,-0.0193,-0.0186,-0.02,-0.0222,-0.0243,-0.0243,-0.0276,-0.0295,-0.0317,-0.0358,-0.0399,-0.0441,-0.0486,-0.0513,-0.0519,-0.0561,-0.0527,-0.0523,-0.0581,-0.0586,-0.059,-0.0627,-0.0635,-0.0529,-0.0529,-0.0529,0,-0.0163,-0.0161,-0.0186,-0.0183,-0.0191,-0.0229,-0.0223,-0.0249,-0.0287,-0.0307,-0.0316,-0.0404,-0.0442,-0.0499,-0.0505,-0.0517,-0.0548,-0.0525,-0.0579,-0.0585,-0.059,-0.0626,-0.0636,-0.0527,-0.0527,-0.0528,-0.0528,0,-0.0136,-0.0135,-0.013,-0.0141,-0.0151,-0.0151,-0.0187,-0.0202,-0.023,-0.0267,-0.0321,-0.038,-0.0436,-0.0457,-0.0485,-0.0545,-0.0552,-0.0567,-0.0583,-0.0593,-0.063,-0.0641,-0.0525,-0.0526,-0.0526,-0.0526,0,0,-0.0099,-0.0108,-0.0107,-0.01,-0.0128,-0.0127,-0.0147,-0.0179,-0.019,-0.0251,-0.0277,-0.0364,-0.0408,-0.0442,-0.049,-0.0547,-0.0609,-0.0571,-0.0575,-0.0605,-0.0725,-0.0642,-0.0646,-0.0634,-0.0636,-0.0637,-0.073,0,-0.0069,-0.0049,-0.0067,-0.0047,-0.0038,-0.0076,-0.0087,-0.0125,-0.0164,-0.0198,-0.0291,-0.033,-0.0399,-0.0419,-0.0496,-0.0571,-0.0637,-0.0581,-0.0714,-0.0717,-0.0642,-0.0656,-0.0621,-0.0694,-0.0741,-0.0743,-0.0744,0,-0.0036,-0.0027,-0.0002,0.0005,0.0006,0.0009,-0.001,-0.0027,-0.0099,-0.013,-0.0212,-0.0272,-0.0374,-0.0415,-0.059,-0.0549,-0.0642,-0.0707,-0.0713,-0.0657,-0.0655,-0.0696,-0.0712,-0.0762,-0.0761,-0.0759,-0.0758,0,0.0008,0.0022,0.0047,0.0047,0.0043,0.0047,0.0039,-0.0012,-0.0013,-0.0088,-0.0088,-0.0235,-0.0271,-0.0432,-0.0572,-0.0587,-0.074,-0.0777,-0.0799,-0.0794,-0.0802,-0.0792,-0.0912,-0.0911,-0.0911,-0.0911,-0.0911,0,0.0048,0.007,0.0073,0.0088,0.0125,0.0097,0.0119,0.0091,0.006,0.0074,-0.0051,-0.0049,-0.0275,-0.0382,-0.0549,-0.0687,-0.0733,-0.0801,-0.0816,-0.0784,-0.0773,-0.0863,-0.0856,-0.0914,-0.0914,-0.0913,-0.0912,0,0.0092,0.0091,0.0127,0.0137,0.0149,0.0172,0.0193,0.0208,0.0171,0.0193,0.0182,0.0086,-0.0036,-0.0253,-0.0477,-0.0612,-0.0777,-0.0819,-0.0746,-0.0749,-0.0806,-0.0796,-0.0871,-0.0869,-0.0868,-0.0866,-0.0865,0,0.0115,0.0138,0.0174,0.0208,0.0218,0.025,0.0279,0.0262,0.0297,0.0295,0.033,0.0234,0.0207,-0.008,-0.0353,-0.0621,-0.0697,-0.0746,-0.0773,-0.0796,-0.0804,-0.0797,-0.079,-0.0781,-0.078,-0.0778,-0.0777,0,0.0165,0.0175,0.0208,0.0275,0.0321,0.0377,0.0428,0.048,0.048,0.0523,0.0587,0.0573,0.0328,0.0101,-0.0243,-0.0433,-0.0703,-0.0719,-0.0793,-0.0764,-0.0711,-0.0718,-0.0715,-0.0764,-0.0765,-0.0766,-0.0767,-0.0767,0.0205,0.024,0.0285,0.0352,0.0412,0.0503,0.0565,0.0646,0.0738,0.0813,0.0793,0.078,0.0509,0.0102,-0.0207,-0.0555,-0.0562,-0.0697,-0.0703,-0.0711,-0.0651,-0.0594,-0.0615,-0.0615,-0.0616,-0.0616,-0.0616,0,0.0267,0.03,0.0363,0.0446,0.0528,0.0542,0.0668,0.0742,0.0885,0.0946,0.1003,0.0782,0.054,0.0198,-0.0281,-0.0543,-0.0622,-0.0644,-0.0692,-0.0701,-0.071,-0.0654,-0.0617,-0.0618,-0.0618,-0.0619,0,0,0.0301,0.0373,0.0403,0.0537,0.0595,0.0712,0.0792,0.0909,0.0984,0.1073,0.1066,0.1018,0.0641,0.0302,-0.0076,-0.035,-0.0478,-0.0415,-0.0382,-0.0404,-0.041,-0.0702,-0.0618,0,0,0,0,0]}],[{"header":{"parameterUnit":"m.s-1","parameterCategory":2,"la1":30.2991,"la2":30.254,"lo1":-89.0895,"lo2":-89.0444,"dy":0.0017,"dx":0.0017,"nx":28,"ny":28,"refTime":"2025-02-23T03:00:00:Z","depth":"4","parameterNumber":2,"parameterNumberName":"U-component_of_CURRENTS"},"data":[0,0,0,0,0,0,0,0,0,0,0,0,0,0,0,0,0,0,0,0,0,0,0,0,0,0,0,0,0,0,0,0,0,0,0,0,0,0,0,0,0,0,0,0,0,0,0,0,0,0,0,0,0,0,0,0,0,0,0.1614,0.1615,0,0.168,0.1681,0.1681,0.1734,0.1734,0.1735,0.1736,0.1799,0.18,0.1801,0,0,0,0,0,0,0,0,0,0,0,0,0,0.1518,0.152,0.1614,0.1615,0.1616,0.168,0.1681,0.1681,0.1733,0.1734,0.1735,0.1736,0.1798,0.1799,0.1801,0,0,0,0,0,0,0,0,0,0,0,0,0,0.1568,0.152,0.1614,0.1651,0.1655,0.168,0.1681,0.1682,0.1733,0.1734,0.1735,0.1736,0.1798,0.1799,0.1801,0.1789,0,0,0.1805,0.1806,0,0,0,0,0,0,0,0,0.1565,0.1571,0.1645,0.1649,0.1653,0.1701,0.167,0.1718,0.1733,0.1701,0.1736,0.1737,0.1766,0.177,0.1778,0.1792,0.1795,0.1806,0.1807,0.1807,0.1808,0,0,0,0,0,0,0,0.1561,0.1568,0.1638,0.1646,0.1651,0.166,0.1668,0.1679,0.1725,0.1704,0.1709,0.1719,0.1769,0.1776,0.178,0.1796,0.1806,0.1807,0.1808,0.1808,0.1889,0.189,0,0,0,0,0,0,0.1557,0.1565,0.1636,0.164,0.1613,0.1661,0.167,0.1683,0.1726,0.1734,0.1718,0.1721,0.1773,0.1778,0.1782,0.1851,0.1807,0.1809,0.1809,0.1888,0.189,0.1891,0,0,0,0,0,0,0.1555,0.1563,0.1633,0.1605,0.1615,0.1662,0.1676,0.1684,0.1726,0.1736,0.1744,0.1756,0.1774,0.178,0.1824,0.185,0.1809,0.1811,0.1887,0.1889,0.189,0.1936,0,0,0,0,0,0,0.1552,0.1562,0.1585,0.1605,0.1617,0.1669,0.1676,0.1685,0.1729,0.1735,0.1771,0.1776,0.1775,0.1822,0.1825,0.1852,0.1812,0.1885,0.1887,0.189,0.1933,0.1939,0.1945,0,0,0,0,0,0.1548,0.157,0.1585,0.1595,0.1642,0.1671,0.1678,0.1712,0.173,0.1753,0.1781,0.1776,0.1839,0.1824,0.1828,0.1855,0.1884,0.1887,0.1889,0.193,0.1938,0.1945,0,0,0,0,0,0,0.1541,0.1578,0.1595,0.1629,0.1659,0.1681,0.1711,0.173,0.1769,0.1785,0.1793,0.18,0.1847,0.1846,0.1829,0.1886,0.186,0.1864,0.189,0.1897,0.1903,0.1907,0.1813,0,0,0,0,0,0.1549,0.158,0.1609,0.1641,0.1659,0.169,0.1713,0.1736,0.1765,0.1786,0.1809,0.1834,0.1855,0.1874,0.1889,0.1921,0.193,0.1941,0.1947,0.1952,0.1959,0.1994,0.2003,0.19,0.19,0.19,0,0,0.1556,0.1582,0.16,0.1643,0.1671,0.1695,0.1708,0.1751,0.1776,0.1784,0.1837,0.1858,0.1868,0.1906,0.1926,0.1913,0.1988,0.1956,0.196,0.1964,0.1998,0.2008,0.2017,0.1902,0.1902,0.1901,0,0,0.157,0.1609,0.1635,0.166,0.1709,0.1724,0.1743,0.1783,0.1813,0.186,0.187,0.1911,0.1947,0.1958,0.1966,0.2013,0.2017,0.2023,0.2058,0.2092,0.2101,0.2108,0.214,0.215,0.2026,0.2026,0.2026,0,0.1578,0.1611,0.1647,0.1674,0.1696,0.1739,0.1761,0.1793,0.1844,0.1872,0.1887,0.196,0.1968,0.2008,0.2026,0.2026,0.2049,0.2029,0.21,0.2107,0.2114,0.2145,0.2155,0.2029,0.2028,0.2028,0.2028,0,0.1598,0.1634,0.1654,0.1698,0.1727,0.1758,0.1796,0.1841,0.1885,0.1916,0.1987,0.2012,0.2058,0.2065,0.2062,0.2117,0.2119,0.2102,0.2081,0.2128,0.2157,0.2167,0.2032,0.2031,0.2031,0.203,0,0,0.1577,0.1652,0.166,0.1685,0.1742,0.1763,0.1815,0.1867,0.1913,0.1977,0.2032,0.2081,0.2119,0.213,0.214,0.2168,0.2236,0.2165,0.2165,0.2195,0.2324,0.2192,0.219,0.224,0.2241,0.2243,0.2326,0,0.1581,0.163,0.1665,0.1709,0.1733,0.1786,0.1827,0.1886,0.1946,0.2011,0.2064,0.2127,0.2136,0.2175,0.2207,0.2225,0.2265,0.2216,0.2275,0.2277,0.2152,0.2198,0.2249,0.2333,0.2336,0.2337,0.2339,0,0.1574,0.1611,0.1654,0.1718,0.1735,0.1771,0.185,0.1895,0.1991,0.204,0.2124,0.2176,0.2247,0.224,0.2325,0.23,0.2325,0.2336,0.2339,0.2205,0.2163,0.2275,0.2357,0.2356,0.2354,0.2353,0.2352,0,0.1526,0.1596,0.1632,0.1653,0.1733,0.1773,0.1824,0.1916,0.1962,0.2077,0.213,0.2226,0.2286,0.2337,0.2381,0.237,0.2453,0.2435,0.2345,0.2337,0.2411,0.2401,0.2499,0.2499,0.2499,0.2499,0.2499,0,0.1492,0.1524,0.1623,0.164,0.1693,0.176,0.1827,0.1894,0.199,0.2044,0.2154,0.221,0.2318,0.238,0.2405,0.2402,0.2484,0.236,0.2349,0.2429,0.2421,0.2418,0.2408,0.2502,0.2501,0.2501,0.25,0,0.1424,0.1489,0.1536,0.1635,0.1671,0.1713,0.182,0.1866,0.1971,0.2044,0.209,0.2224,0.2309,0.2388,0.2467,0.2421,0.2433,0.2414,0.2505,0.2496,0.2294,0.2286,0.2328,0.2324,0.232,0.2318,0.2315,0,0.139,0.1412,0.1523,0.1558,0.1609,0.1685,0.1733,0.1844,0.189,0.2035,0.2057,0.2193,0.2269,0.2274,0.2364,0.2407,0.2387,0.2382,0.2329,0.2292,0.2278,0.2274,0.227,0.231,0.2309,0.2308,0.2307,0,0.1323,0.1379,0.1423,0.15,0.156,0.1608,0.1692,0.1707,0.1827,0.1938,0.199,0.2048,0.2133,0.2201,0.2246,0.227,0.2372,0.2346,0.2353,0.2304,0.227,0.2259,0.2259,0.2296,0.2297,0.2298,0.2299,0,0.1282,0.1299,0.1373,0.1424,0.1495,0.1515,0.1564,0.1619,0.1673,0.1829,0.1845,0.1979,0.2106,0.2132,0.2169,0.2184,0.2168,0.2108,0.2127,0.2141,0.2041,0.1969,0.1898,0,0,0,0,0,0.1232,0.1246,0.1292,0.1339,0.1403,0.1446,0.1529,0.1579,0.1691,0.1685,0.1759,0.1831,0.1901,0.198,0.1963,0.2105,0.2179,0.2079,0.2118,0.2231,0.2244,0.2144,0,0,0,0,0,0,0.1201,0.1245,0.126,0.1257,0.1276,0.133,0.1377,0.1453,0.1458,0.1584,0.1634,0.1741,0.184,0.1898,0.1935,0.1959,0.1954,0.217,0.2166,0.2223,0.2235,0.2246,0.2148,0,0,0,0,0]},{"header":{"parameterUnit":"m.s-1","parameterCategory":2,"la1":30.2991,"la2":30.254,"lo1":-89.0895,"lo2":-89.0444,"dy":0.0017,"dx":0.0017,"nx":28,"ny":28,"refTime":"2025-02-23T03:00:00:Z","depth":"4","parameterNumber":3,"parameterNumberName":"V-component_of_CURRENTS"},"data":[0,0,0,0,0,0,0,0,0,0,0,0,0,0,0,0,0,0,0,0,0,0,0,0,0,0,0,0,0,0,0,0,0,0,0,0,0,0,0,0,0,0,0,0,0,0,0,0,0,0,0,0,0,0,0,0,0,0,-0.0056,-0.0056,0,-0.0104,-0.0104,-0.0105,-0.014,-0.014,-0.014,-0.014,-0.0186,-0.0187,-0.0188,0,0,0,0,0,0,0,0,0,0,0,0,0,-0.0012,-0.0013,-0.0056,-0.0056,-0.0057,-0.0104,-0.0105,-0.0105,-0.014,-0.014,-0.014,-0.0141,-0.0185,-0.0187,-0.0188,0,0,0,0,0,0,0,0,0,0,0,0,0,-0.0043,-0.0013,-0.0055,-0.008,-0.0082,-0.0104,-0.0105,-0.0105,-0.0139,-0.014,-0.014,-0.0141,-0.0185,-0.0186,-0.0188,-0.0188,0,0,-0.0192,-0.0193,0,0,0,0,0,0,0,0,-0.0041,-0.0044,-0.0075,-0.0078,-0.0081,-0.0116,-0.0106,-0.0133,-0.0139,-0.0118,-0.014,-0.0141,-0.0162,-0.0165,-0.0173,-0.019,-0.0192,-0.0192,-0.0193,-0.0194,-0.0194,0,0,0,0,0,0,0,-0.0039,-0.0043,-0.0075,-0.0076,-0.0079,-0.0095,-0.0099,-0.0111,-0.0137,-0.012,-0.0122,-0.0127,-0.0163,-0.0172,-0.0175,-0.0193,-0.0192,-0.0194,-0.0194,-0.0195,-0.0205,-0.0204,0,0,0,0,0,0,-0.0031,-0.004,-0.0073,-0.0076,-0.0062,-0.0095,-0.01,-0.0104,-0.0137,-0.0142,-0.0127,-0.0129,-0.0169,-0.0173,-0.0176,-0.016,-0.0194,-0.0195,-0.0196,-0.0205,-0.0205,-0.0204,0,0,0,0,0,0,-0.003,-0.0034,-0.0071,-0.0059,-0.0065,-0.0095,-0.01,-0.0105,-0.0117,-0.0143,-0.0148,-0.0133,-0.017,-0.0174,-0.0187,-0.0163,-0.0196,-0.0197,-0.0206,-0.0205,-0.0204,-0.014,0,0,0,0,0,0,-0.0029,-0.0033,-0.0034,-0.0059,-0.0066,-0.0079,-0.01,-0.0106,-0.0119,-0.0122,-0.0149,-0.0154,-0.0171,-0.0185,-0.0189,-0.0166,-0.0198,-0.0207,-0.0206,-0.0205,-0.0143,-0.0137,-0.0132,0,0,0,0,0,-0.0027,-0.0023,-0.0033,-0.0038,-0.0066,-0.0079,-0.0084,-0.0107,-0.0119,-0.0119,-0.014,-0.0153,-0.018,-0.0186,-0.019,-0.0167,-0.0207,-0.0206,-0.0205,-0.0145,-0.0138,-0.0132,0,0,0,0,0,0,-0.0003,-0.0027,-0.0039,-0.0042,-0.0058,-0.0085,-0.0088,-0.0104,-0.0122,-0.0125,-0.0151,-0.0157,-0.0158,-0.0175,-0.018,-0.0167,-0.0194,-0.0193,-0.0147,-0.014,-0.0135,-0.0112,-0.0199,0,0,0,0,0,0.0002,-0.0002,-0.0027,-0.0029,-0.0035,-0.0062,-0.0071,-0.0086,-0.0105,-0.0114,-0.0134,-0.015,-0.0155,-0.0158,-0.0173,-0.0167,-0.0182,-0.0154,-0.0148,-0.0143,-0.0128,-0.0126,-0.0119,-0.02,-0.02,-0.02,0,0,0.001,-0.0003,-0.0005,-0.0024,-0.0038,-0.0031,-0.0068,-0.0078,-0.0067,-0.0115,-0.011,-0.0136,-0.0152,-0.0146,-0.0146,-0.0156,-0.0134,-0.0142,-0.0137,-0.0124,-0.0124,-0.0116,-0.0109,-0.0199,-0.0199,-0.0199,0,0,0.0035,0.0015,0.0023,0.0015,-0.0003,-0.0014,-0.0015,-0.0041,-0.0048,-0.0053,-0.0078,-0.0087,-0.0107,-0.0105,-0.0107,-0.0079,-0.0109,-0.0089,-0.0035,-0.0034,-0.0027,-0.0021,-0.0049,-0.0046,-0.008,-0.008,-0.008,0,0.0048,0.0055,0.0024,0.0034,0.0039,-0.0,0.0021,0.001,-0.0016,-0.001,-0.0042,-0.0053,-0.0078,-0.0045,-0.0044,-0.0062,-0.0083,-0.0057,-0.0025,-0.0019,-0.0014,-0.0045,-0.0042,-0.0077,-0.0077,-0.0077,-0.0078,0,0.008,0.0089,0.0094,0.01,0.01,0.0108,0.0095,0.0093,0.0075,0.0066,0.0074,0.0036,0.0036,0.0024,-0.0005,0.0026,-0.0009,-0.0022,-0.0038,-0.0002,-0.0037,-0.0036,-0.0072,-0.0073,-0.0074,-0.0075,0,0,0.011,0.0117,0.0121,0.0141,0.0137,0.0145,0.0168,0.0183,0.0206,0.0175,0.0208,0.0183,0.0153,0.0149,0.0114,0.0108,0.0107,0.0057,0.0056,0.0035,0.0086,0.0019,0.0013,0.0096,0.0097,0.0098,0.004,0,0.015,0.0188,0.0183,0.0233,0.0255,0.0241,0.0271,0.0278,0.0269,0.0285,0.026,0.0264,0.0207,0.0198,0.0189,0.0128,0.0117,0.0123,0.0049,0.0046,-0.0011,0.0016,0.0102,0.0041,0.0041,0.0041,0.0041,0,0.0189,0.0212,0.0263,0.0308,0.0318,0.0342,0.0385,0.0403,0.0416,0.0409,0.0411,0.0376,0.0368,0.0305,0.0247,0.0249,0.0176,0.0123,0.012,0.0041,-0.0016,0.0,0.0044,0.0043,0.0043,0.0043,0.0043,0,0.023,0.0275,0.0321,0.0333,0.0371,0.0399,0.0421,0.0441,0.047,0.0481,0.049,0.0478,0.0456,0.0393,0.0268,0.0258,0.0187,0.0164,0.004,0.0033,0.0082,0.0076,0.0131,0.0131,0.0131,0.0131,0.0131,0,0.0277,0.0317,0.0342,0.0368,0.0432,0.0442,0.0504,0.0519,0.0553,0.0589,0.0551,0.0558,0.0473,0.0412,0.0308,0.0174,0.022,0.0056,0.0024,0.0105,0.0103,0.0081,0.0076,0.0129,0.0129,0.013,0.013,0,0.0312,0.0328,0.0384,0.0431,0.045,0.0491,0.0552,0.0594,0.061,0.0654,0.0658,0.0623,0.0526,0.0425,0.0306,0.021,0.0098,0.0036,0.0118,0.0089,-0.007,-0.0071,-0.0094,-0.0097,-0.0099,-0.0101,-0.0102,0,0.0332,0.0361,0.0421,0.0454,0.0475,0.0532,0.0574,0.0618,0.0656,0.068,0.0701,0.063,0.0578,0.0378,0.0257,0.0071,0.003,-0.003,-0.0036,-0.0059,-0.0088,-0.0085,-0.0083,-0.0106,-0.0107,-0.0107,-0.0108,0,0.037,0.0385,0.0426,0.0487,0.0536,0.0598,0.0654,0.069,0.073,0.0749,0.0726,0.0622,0.0506,0.0355,0.0203,0.0069,0.0017,-0.0054,-0.005,-0.0057,-0.0073,-0.0099,-0.0095,-0.0115,-0.0114,-0.0114,-0.0113,0,0.0391,0.042,0.0463,0.0517,0.0581,0.0639,0.0672,0.0705,0.0745,0.0764,0.0747,0.0629,0.0571,0.035,0.0217,0.0074,0.0027,-0.0021,-0.002,-0.0013,0.0018,0.001,-0.0024,0,0,0,0,0,0.0408,0.0436,0.049,0.0548,0.061,0.0646,0.0716,0.0742,0.0773,0.0759,0.0758,0.0644,0.0431,0.0348,0.0193,0.0157,-0.0003,-0.0033,-0.0059,-0.0158,-0.0149,-0.0134,0,0,0,0,0,0,0.042,0.0467,0.0488,0.0558,0.0598,0.0672,0.0716,0.0741,0.0732,0.074,0.0635,0.0584,0.0386,0.052,0.0185,0.0141,0.0097,-0.0125,-0.013,-0.0163,-0.0155,-0.0148,-0.0129,0,0,0,0,0]}]]